Language: 


Des rapports , des résumés tant et plus, au choix de chacun....


Données statistiques de la station
Quotidien Rapport Avril 28, 2017 Unités:  Anglais    Métrique   les deux
« Précédent Jour
Suivant Jour »
Quotidien Hebdomadaire Mensuel Annuel Actuel
  Haut: Bas: Moyen:
Température: 61 °F 41.7 °F 49.8 °F
Pt de rosée: 50 °F 30.2 °F 37.6 °F
Humidité: 96 % 43 % 64 %
Vitesse du vent: 10.5 mph 0 mph 3.3 mph
Rafales: 15.9 mph - -
Vent:- - West
Pression: 30 in 29.9 in -
Précipitation: 0 in    
Historical Graphs
 
 
Données statistiques pour Avril 28, 2017
Heure Température Point de rosée Pression Vent Vitesse du vent Refales Humidité Pluie (taux horaire)
00:04 43.7 °F 33.8 °F 29.9 in Calm   2 mph 69 % 0 in
00:09 43.7 °F 35.6 °F 30 in WSW 2.9 mph 3.4 mph 70 % 0 in
00:14 43.7 °F 35.6 °F 30 in WSW 3.1 mph 3.8 mph 70 % 0 in
00:19 43.7 °F 35.6 °F 30 in West 3.8 mph 4.7 mph 70 % 0 in
00:24 43.9 °F 35.6 °F 30 in West 2.5 mph 4.7 mph 70 % 0 in
00:29 43.9 °F 35.6 °F 30 in SW 1.6 mph 4.7 mph 71 % 0 in
00:34 44.1 °F 35.6 °F 30 in West 2.9 mph 4.7 mph 71 % 0 in
00:40 44.1 °F 35.6 °F 30 in Calm   3.8 mph 71 % 0 in
00:45 44.1 °F 35.6 °F 30 in Calm   3.6 mph 71 % 0 in
00:50 44.1 °F 35.6 °F 30 in West 4.7 mph 5.4 mph 72 % 0 in
00:55 44.2 °F 35.6 °F 30 in West 2.5 mph 5.8 mph 72 % 0 in
01:00 44.2 °F 35.6 °F 30 in West 4.3 mph 5.8 mph 73 % 0 in
01:05 44.2 °F 35.6 °F 30 in West 3.8 mph 4.7 mph 73 % 0 in
01:10 44.4 °F 37.4 °F 30 in West 4.5 mph 5.4 mph 73 % 0 in
01:15 44.4 °F 37.4 °F 30 in West 4.3 mph 5.4 mph 73 % 0 in
01:20 44.6 °F 37.4 °F 30 in West 3.8 mph 5.4 mph 73 % 0 in
01:25 44.6 °F 37.4 °F 30 in West 3.6 mph 5.6 mph 73 % 0 in
01:30 44.6 °F 37.4 °F 30 in West 3.6 mph 5.6 mph 74 % 0 in
01:35 44.6 °F 37.4 °F 30 in West 3.1 mph 4.3 mph 74 % 0 in
01:40 44.6 °F 37.4 °F 29.9 in West 2.5 mph 4.3 mph 74 % 0 in
01:45 44.6 °F 37.4 °F 29.9 in WSW 4.3 mph 4.9 mph 74 % 0 in
01:50 44.6 °F 37.4 °F 30 in West 3.8 mph 5.8 mph 75 % 0 in
01:55 44.6 °F 37.4 °F 30 in West 3.8 mph 5.8 mph 75 % 0 in
02:00 44.4 °F 37.4 °F 30 in West 3.4 mph 5.4 mph 76 % 0 in
02:05 44.2 °F 37.4 °F 29.9 in WSW 2.9 mph 4.3 mph 76 % 0 in
02:10 44.2 °F 37.4 °F 29.9 in Calm   4 mph 76 % 0 in
02:16 44.2 °F 37.4 °F 29.9 in Calm   4 mph 77 % 0 in
02:21 44.1 °F 37.4 °F 29.9 in West 3.1 mph 3.1 mph 77 % 0 in
02:26 44.1 °F 37.4 °F 29.9 in WSW 4 mph 4 mph 77 % 0 in
02:31 43.9 °F 37.4 °F 29.9 in WSW 3.8 mph 4.3 mph 77 % 0 in
02:36 43.9 °F 37.4 °F 29.9 in WSW 1.3 mph 4.3 mph 78 % 0 in
02:41 43.9 °F 37.4 °F 29.9 in WSW 2.5 mph 4.3 mph 78 % 0 in
02:46 43.7 °F 37.4 °F 29.9 in Calm   4.3 mph 79 % 0 in
02:51 43.7 °F 37.4 °F 29.9 in Calm   4.3 mph 79 % 0 in
02:56 43.5 °F 37.4 °F 29.9 in Calm   4.3 mph 80 % 0 in
03:01 43.5 °F 37.4 °F 29.9 in Calm   3.8 mph 80 % 0 in
03:06 43.5 °F 37.4 °F 29.9 in Calm   3.6 mph 81 % 0 in
03:11 43.3 °F 37.4 °F 29.9 in Calm     81 % 0 in
03:16 43.3 °F 37.4 °F 29.9 in Calm     81 % 0 in
03:21 43.3 °F 39.2 °F 29.9 in West 2.7 mph 3.1 mph 82 % 0 in
03:26 43.3 °F 39.2 °F 29.9 in WSW 2.7 mph 3.1 mph 82 % 0 in
03:31 43.5 °F 39.2 °F 29.9 in Calm   3.8 mph 83 % 0 in
03:36 43.5 °F 39.2 °F 29.9 in SSW 2 mph 3.8 mph 82 % 0 in
03:41 43.7 °F 39.2 °F 29.9 in SW 2.7 mph 3.8 mph 83 % 0 in
03:47 43.7 °F 39.2 °F 29.9 in WSW 2.2 mph 3.8 mph 83 % 0 in
03:52 43.7 °F 39.2 °F 29.9 in SW 2.7 mph 4.3 mph 83 % 0 in
03:57 43.5 °F 39.2 °F 29.9 in West 1.1 mph 4.3 mph 83 % 0 in
04:02 43.3 °F 39.2 °F 29.9 in WSW 2.5 mph 3.8 mph 83 % 0 in
04:07 43.2 °F 39.2 °F 29.9 in WSW 2.7 mph 4 mph 84 % 0 in
04:12 43 °F 39.2 °F 29.9 in WSW 2.2 mph 4 mph 84 % 0 in
04:17 43.2 °F 39.2 °F 29.9 in Calm   3.1 mph 85 % 0 in
04:22 43.2 °F 39.2 °F 29.9 in West 1.1 mph 3.1 mph 85 % 0 in
04:27 43.2 °F 39.2 °F 29.9 in West 2.5 mph 3.6 mph 85 % 0 in
04:32 43.3 °F 39.2 °F 29.9 in WSW 2.7 mph 3.8 mph 85 % 0 in
04:37 43.2 °F 39.2 °F 29.9 in SSW 2.7 mph 3.8 mph 86 % 0 in
04:42 43 °F 39.2 °F 29.9 in West 3.1 mph 3.8 mph 85 % 0 in
04:47 42.6 °F 39.2 °F 29.9 in Calm   3.8 mph 86 % 0 in
04:52 42.4 °F 39.2 °F 29.9 in WSW 0.9 mph 3.4 mph 85 % 0 in
04:57 42.4 °F 39.2 °F 29.9 in Calm   1.6 mph 86 % 0 in
05:02 42.4 °F 39.2 °F 29.9 in Calm     86 % 0 in
05:07 42.4 °F 39.2 °F 29.9 in Calm     87 % 0 in
05:13 42.4 °F 39.2 °F 29.9 in SSW 2.5 mph 2.5 mph 87 % 0 in
05:18 42.4 °F 39.2 °F 29.9 in Calm   2.5 mph 87 % 0 in
05:23 42.6 °F 39.2 °F 29.9 in WSW 3.4 mph 3.4 mph 87 % 0 in
05:28 42.8 °F 39.2 °F 29.9 in WSW 3.4 mph 3.6 mph 87 % 0 in
05:33 42.8 °F 39.2 °F 29.9 in WSW 4 mph 4 mph 87 % 0 in
05:38 43 °F 39.2 °F 29.9 in WNW 3.8 mph 4.3 mph 88 % 0 in
05:43 42.8 °F 39.2 °F 29.9 in WNW 3.6 mph 5.6 mph 88 % 0 in
05:48 42.8 °F 39.2 °F 29.9 in Calm   5.6 mph 88 % 0 in
05:53 42.8 °F 39.2 °F 29.9 in WSW 3.8 mph 4.7 mph 88 % 0 in
05:58 42.4 °F 39.2 °F 29.9 in Calm   4 mph 88 % 0 in
06:03 42.3 °F 39.2 °F 29.9 in Calm   4 mph 88 % 0 in
06:08 42.3 °F 39.2 °F 29.9 in West 3.4 mph 3.8 mph 89 % 0 in
06:13 42.3 °F 39.2 °F 29.9 in West 3.6 mph 4.3 mph 89 % 0 in
06:18 42.1 °F 39.2 °F 29.9 in West 3.8 mph 4.3 mph 89 % 0 in
06:23 42.1 °F 39.2 °F 29.9 in WNW 2.7 mph 4 mph 89 % 0 in
06:28 42.1 °F 39.2 °F 29.9 in WNW 1.6 mph 3.8 mph 90 % 0 in
06:33 41.7 °F 39.2 °F 29.9 in WNW 2.7 mph 3.4 mph 90 % 0 in
06:38 41.7 °F 39.2 °F 29.9 in WNW 3.8 mph 3.8 mph 90 % 0 in
06:43 41.9 °F 39.2 °F 29.9 in West 3.6 mph 4.7 mph 90 % 0 in
06:48 41.9 °F 39.2 °F 29.9 in West 3.4 mph 4.7 mph 90 % 0 in
06:53 42.1 °F 41 °F 29.9 in West 4 mph 4.5 mph 91 % 0 in
06:59 42.1 °F 41 °F 29.9 in West 2 mph 4.5 mph 91 % 0 in
07:04 42.1 °F 41 °F 29.9 in West 3.1 mph 5.4 mph 91 % 0 in
07:09 42.3 °F 41 °F 29.9 in West 2.9 mph 6 mph 92 % 0 in
07:14 42.4 °F 41 °F 29.9 in WSW 4 mph 6 mph 92 % 0 in
07:19 42.6 °F 41 °F 29.9 in West 5.6 mph 6 mph 92 % 0 in
07:24 42.6 °F 41 °F 29.9 in West 4 mph 5.8 mph 93 % 0 in
07:29 42.8 °F 41 °F 29.9 in West 2 mph 6 mph 93 % 0 in
07:34 42.8 °F 41 °F 29.9 in WSW 5.6 mph 6 mph 93 % 0 in
07:39 43 °F 41 °F 29.9 in WSW 2.7 mph 6 mph 93 % 0 in
07:44 43.2 °F 42.8 °F 29.9 in West 4.7 mph 6 mph 93 % 0 in
07:49 43.3 °F 42.8 °F 29.9 in West 4.9 mph 7.2 mph 93 % 0 in
07:54 43.5 °F 42.8 °F 29.9 in West 5.4 mph 7.4 mph 94 % 0 in
07:59 43.5 °F 42.8 °F 29.9 in West 6.3 mph 7.4 mph 94 % 0 in
08:04 43.7 °F 42.8 °F 29.9 in WSW 3.4 mph 6.5 mph 95 % 0 in
08:09 44.1 °F 42.8 °F 29.9 in West 3.4 mph 6.5 mph 95 % 0 in
08:14 45.1 °F 44.6 °F 29.9 in West 5.6 mph 7.4 mph 96 % 0 in
08:19 45.3 °F 44.6 °F 29.9 in West 6.5 mph 7.4 mph 96 % 0 in
08:24 45.9 °F 44.6 °F 29.9 in WNW 2.9 mph 6.5 mph 96 % 0 in
08:29 46.2 °F 46.4 °F 29.9 in Calm   6.3 mph 96 % 0 in
08:35 46.6 °F 46.4 °F 29.9 in West 2.5 mph 6.3 mph 96 % 0 in
08:40 46.9 °F 46.4 °F 29.9 in West 3.6 mph 4 mph 95 % 0 in
08:45 46.9 °F 46.4 °F 29.9 in WSW 1.3 mph 5.8 mph 95 % 0 in
08:50 47.3 °F 46.4 °F 29.9 in West 4.9 mph 5.8 mph 95 % 0 in
08:55 47.8 °F 48.2 °F 29.9 in WNW 2.9 mph 5.6 mph 95 % 0 in
09:00 48.2 °F 48.2 °F 29.9 in NNW 3.8 mph 6.5 mph 95 % 0 in
09:05 49.3 °F 48.2 °F 29.9 in West 1.3 mph 6.5 mph 95 % 0 in
09:10 50.2 °F 48.2 °F 29.9 in West 3.1 mph 4.9 mph 95 % 0 in
09:15 50.9 °F 50 °F 29.9 in NNW 4.9 mph 6 mph 94 % 0 in
09:20 51.8 °F 48.2 °F 29.9 in NNW 3.6 mph 7.4 mph 90 % 0 in
09:25 52 °F 48.2 °F 29.9 in North 7.8 mph 7.8 mph 86 % 0 in
09:30 52.2 °F 48.2 °F 29.9 in North 3.6 mph 7.8 mph 85 % 0 in
09:35 51.6 °F 46.4 °F 29.9 in North 1.6 mph 8.5 mph 81 % 0 in
09:40 50.9 °F 44.6 °F 29.9 in NNW 1.6 mph 8.5 mph 76 % 0 in
09:45 50.7 °F 44.6 °F 29.9 in NNW 3.8 mph 6.5 mph 77 % 0 in
09:50 52.5 °F 46.4 °F 29.9 in North 1.6 mph 6.3 mph 78 % 0 in
09:55 51.8 °F 42.8 °F 29.9 in WNW 4.9 mph 9.6 mph 71 % 0 in
10:00 51.4 °F 42.8 °F 29.9 in NNE 3.6 mph 9.6 mph 71 % 0 in
10:05 53.1 °F 44.6 °F 29.9 in NNW 4.9 mph 8.7 mph 73 % 0 in
10:10 51.8 °F 42.8 °F 29.9 in NNW 6.3 mph 8.7 mph 68 % 0 in
10:15 51.3 °F 42.8 °F 29.9 in North 3.4 mph 10.1 mph 70 % 0 in
10:21 51.1 °F 41 °F 29.9 in West 4.9 mph 10.1 mph 69 % 0 in
10:26 51.4 °F 42.8 °F 29.9 in NNE 1.3 mph 7.8 mph 70 % 0 in
10:31 54 °F 44.6 °F 29.9 in NE 1.6 mph 6.5 mph 69 % 0 in
10:36 55 °F 44.6 °F 29.9 in NW 4.3 mph 8.1 mph 66 % 0 in
10:41 54 °F 41 °F 29.9 in West 2.7 mph 8.7 mph 62 % 0 in
10:46 52.9 °F 41 °F 29.9 in NW 6 mph 8.7 mph 62 % 0 in
10:51 52.7 °F 39.2 °F 29.9 in North 7.8 mph 8.5 mph 61 % 0 in
10:56 52.9 °F 39.2 °F 29.9 in NNW 8.1 mph 8.5 mph 59 % 0 in
11:01 53.1 °F 39.2 °F 29.9 in NNW 6 mph 8.5 mph 58 % 0 in
11:06 52.9 °F 39.2 °F 30 in North 1.6 mph 8.5 mph 59 % 0 in
11:11 52.7 °F 37.4 °F 30 in ENE 3.4 mph 5.6 mph 57 % 0 in
11:16 52.7 °F 37.4 °F 30 in North 4 mph 8.5 mph 56 % 0 in
11:21 52.5 °F 37.4 °F 30 in WNW 4.9 mph 10.1 mph 55 % 0 in
11:26 53.2 °F 37.4 °F 30 in NNW 3.4 mph 10.1 mph 56 % 0 in
11:31 54.9 °F 39.2 °F 30 in North 6.7 mph 10.7 mph 55 % 0 in
11:36 56.7 °F 42.8 °F 29.9 in North 7.6 mph 10.7 mph 57 % 0 in
11:41 57.4 °F 41 °F 29.9 in West 3.4 mph 8.5 mph 52 % 0 in
11:46 55.9 °F 37.4 °F 29.9 in North 4.3 mph 8.5 mph 50 % 0 in
11:52 56.3 °F 37.4 °F 29.9 in NE 3.4 mph 8.7 mph 49 % 0 in
11:57 56.1 °F 37.4 °F 29.9 in WNW 3.8 mph 8.7 mph 50 % 0 in
12:02 58.5 °F 41 °F 29.9 in NNW 4 mph 8.7 mph 50 % 0 in
12:07 58.5 °F 39.2 °F 29.9 in North 2.9 mph 8.5 mph 49 % 0 in
12:12 55.9 °F 37.4 °F 29.9 in WNW 9.8 mph 9.8 mph 47 % 0 in
12:17 54.7 °F 35.6 °F 29.9 in NW 3.8 mph 9.8 mph 48 % 0 in
12:22 54 °F 35.6 °F 30 in NNW 5.4 mph 10.7 mph 49 % 0 in
12:27 53.8 °F 37.4 °F 30 in NNW 2.5 mph 10.7 mph 51 % 0 in
12:32 54.9 °F 37.4 °F 30 in North 3.8 mph 10.3 mph 52 % 0 in
12:37 54 °F 37.4 °F 29.9 in NNW 6.3 mph 10.5 mph 52 % 0 in
12:42 53.6 °F 37.4 °F 29.9 in WNW 4.9 mph 10.5 mph 52 % 0 in
12:47 56.3 °F 39.2 °F 29.9 in NNW 3.8 mph 9.2 mph 52 % 0 in
12:52 57.2 °F 39.2 °F 29.9 in NE 4.3 mph 8.1 mph 51 % 0 in
12:57 55.2 °F 37.4 °F 29.9 in NNW 6.5 mph 11 mph 50 % 0 in
13:02 56.3 °F 39.2 °F 29.9 in West 6.5 mph 11 mph 50 % 0 in
13:07 54.9 °F 37.4 °F 30 in North 2.7 mph 8.7 mph 49 % 0 in
13:12 57.4 °F 39.2 °F 30 in North 4 mph 7.2 mph 49 % 0 in
13:17 57.9 °F 37.4 °F 30 in WNW 3.6 mph 7.8 mph 47 % 0 in
13:22 59.7 °F 39.2 °F 29.9 in North 4.9 mph 8.1 mph 47 % 0 in
13:27 57.2 °F 37.4 °F 29.9 in North 6.5 mph 10.1 mph 46 % 0 in
13:32 56.3 °F 37.4 °F 29.9 in North 6.3 mph 10.5 mph 46 % 0 in
13:37 55.8 °F 37.4 °F 30 in North 4 mph 10.5 mph 47 % 0 in
13:43 55.6 °F 35.6 °F 30 in NNW 7.2 mph 7.6 mph 47 % 0 in
13:48 56.1 °F 37.4 °F 30 in NE 2.2 mph 10.3 mph 47 % 0 in
13:53 57.7 °F 39.2 °F 30 in NNW 3.8 mph 10.3 mph 48 % 0 in
13:58 58.3 °F 39.2 °F 30 in North 5.8 mph 7.8 mph 47 % 0 in
14:03 56.8 °F 37.4 °F 30 in NNE 7.4 mph 10.3 mph 46 % 0 in
14:08 56.5 °F 37.4 °F 30 in North 5.6 mph 10.7 mph 46 % 0 in
14:13 55.9 °F 37.4 °F 30 in North 5.6 mph 10.7 mph 47 % 0 in
14:18 55.8 °F 37.4 °F 30 in North 4.9 mph 10.3 mph 47 % 0 in
14:23 56.1 °F 37.4 °F 30 in NNW 4 mph 8.5 mph 47 % 0 in
14:28 58.1 °F 37.4 °F 30 in NW 3.4 mph 7.8 mph 46 % 0 in
14:33 59.5 °F 39.2 °F 30 in West 6.5 mph 8.5 mph 46 % 0 in
14:38 58.5 °F 37.4 °F 30 in SSW 7.6 mph 8.5 mph 46 % 0 in
14:43 56.1 °F 35.6 °F 30 in North 4 mph 8.5 mph 45 % 0 in
14:48 55.8 °F 35.6 °F 30 in WNW 5.4 mph 9.8 mph 45 % 0 in
14:53 58.6 °F 37.4 °F 30 in West 8.7 mph 9.8 mph 45 % 0 in
14:58 59.7 °F 39.2 °F 30 in NW 10.3 mph 12.1 mph 46 % 0 in
15:03 58.6 °F 37.4 °F 30 in WNW 3.1 mph 12.1 mph 46 % 0 in
15:08 57.6 °F 37.4 °F 30 in NNE 2.9 mph 10.5 mph 45 % 0 in
15:13 58.8 °F 39.2 °F 30 in NW 5.8 mph 10.5 mph 46 % 0 in
15:18 60.4 °F 39.2 °F 30 in WNW 4 mph 8.5 mph 45 % 0 in
15:23 61 °F 39.2 °F 29.9 in NNE 6.3 mph 15.9 mph 44 % 0 in
15:28 60.6 °F 39.2 °F 29.9 in NNE 6 mph 15.9 mph 44 % 0 in
15:33 58.1 °F 37.4 °F 29.9 in North 4.7 mph 13.6 mph 44 % 0 in
15:38 56.5 °F 35.6 °F 29.9 in NNW 6.5 mph 12.8 mph 45 % 0 in
15:44 56.8 °F 37.4 °F 29.9 in NNW 4.5 mph 12.8 mph 46 % 0 in
15:49 56.7 °F 37.4 °F 29.9 in WNW 3.1 mph 10.3 mph 46 % 0 in
15:54 56.3 °F 37.4 °F 30 in NNE 2.7 mph 10.3 mph 46 % 0 in
15:59 55.8 °F 35.6 °F 30 in North 2.7 mph 10.7 mph 46 % 0 in
16:04 56.1 °F 37.4 °F 30 in WNW 5.4 mph 10.7 mph 47 % 0 in
16:09 55.9 °F 37.4 °F 29.9 in North 9.8 mph 10.5 mph 47 % 0 in
16:14 55.2 °F 35.6 °F 29.9 in NNE 6 mph 10.1 mph 47 % 0 in
16:19 56.3 °F 37.4 °F 29.9 in NNW 3.1 mph 10.1 mph 47 % 0 in
16:24 56.8 °F 37.4 °F 29.9 in NNW 7.8 mph 12.3 mph 46 % 0 in
16:29 56.8 °F 37.4 °F 29.9 in SW 5.4 mph 12.3 mph 47 % 0 in
16:30 56.8 °F 37.4 °F 29.9 in NNE 3.8 mph 12.3 mph 47 % 0 in
16:35 56.5 °F 37.4 °F 29.9 in NNW 10.5 mph 10.5 mph 46 % 0 in
16:40 58.8 °F 39.2 °F 30 in NW 4.3 mph 10.5 mph 46 % 0 in
16:45 59.2 °F 37.4 °F 30 in NNE 10.5 mph 10.5 mph 44 % 0 in
16:50 59.2 °F 37.4 °F 30 in NNW 4.3 mph 10.5 mph 45 % 0 in
16:55 57.2 °F 37.4 °F 29.9 in North 7.6 mph 10.7 mph 45 % 0 in
17:00 55.9 °F 35.6 °F 29.9 in West 4.3 mph 10.7 mph 45 % 0 in
17:05 55.8 °F 35.6 °F 30 in North 6.5 mph 9.8 mph 46 % 0 in
17:10 56.3 °F 37.4 °F 30 in East 3.4 mph 7.6 mph 46 % 0 in
17:15 58.1 °F 37.4 °F 30 in North 2.7 mph 8.5 mph 46 % 0 in
17:20 58.6 °F 37.4 °F 30 in North 3.8 mph 13.4 mph 45 % 0 in
17:21 58.6 °F 37.4 °F 30 in NNE 10.3 mph 13.4 mph 45 % 0 in
17:26 56.8 °F 35.6 °F 30 in NNE 3.1 mph 13.4 mph 45 % 0 in
17:31 58.3 °F 37.4 °F 30 in NNW 7.8 mph 12.1 mph 45 % 0 in
17:36 60.1 °F 39.2 °F 30 in NNW 3.1 mph 12.1 mph 45 % 0 in
17:42 58.1 °F 37.4 °F 30 in WNW 6.3 mph 10.1 mph 44 % 0 in
17:47 58.8 °F 37.4 °F 30 in NNW 7.4 mph 10.1 mph 43 % 0 in
17:52 59.5 °F 37.4 °F 30 in WSW 8.1 mph 8.5 mph 43 % 0 in
17:57 59.4 °F 37.4 °F 30 in NNE 7.6 mph 8.1 mph 43 % 0 in
18:02 59.4 °F 37.4 °F 30 in NNE 6 mph 7.8 mph 43 % 0 in
18:07 59.2 °F 37.4 °F 30 in NNE 7.8 mph 8.1 mph 43 % 0 in
18:12 58.8 °F 37.4 °F 30 in North 10.1 mph 10.3 mph 44 % 0 in
18:17 58.5 °F 35.6 °F 30 in NW 2.9 mph 10.3 mph 43 % 0 in
18:22 58.1 °F 35.6 °F 30 in North 5.4 mph 10.1 mph 43 % 0 in
18:27 56.7 °F 33.8 °F 30 in North 6 mph 10.5 mph 43 % 0 in
18:32 56.1 °F 35.6 °F 30 in North 7.6 mph 10.5 mph 44 % 0 in
18:37 56.1 °F 35.6 °F 30 in WNW 2.7 mph 9.8 mph 44 % 0 in
18:42 57.4 °F 35.6 °F 30 in North 6.3 mph 8.1 mph 44 % 0 in
18:47 56.5 °F 35.6 °F 30 in NNW 6.5 mph 7.2 mph 44 % 0 in
18:52 56.8 °F 35.6 °F 30 in West 1.1 mph 7.2 mph 44 % 0 in
18:57 57 °F 35.6 °F 30 in North 5.6 mph 5.6 mph 44 % 0 in
19:02 56.5 °F 35.6 °F 30 in NNW 3.1 mph 6.3 mph 44 % 0 in
19:07 56.7 °F 35.6 °F 30 in NNE 6.3 mph 7.2 mph 44 % 0 in
19:12 56.5 °F 33.8 °F 30 in NNE 5.6 mph 8.1 mph 43 % 0 in
19:17 56.7 °F 33.8 °F 30 in North 2.9 mph 8.1 mph 43 % 0 in
19:22 56.7 °F 33.8 °F 30 in North 6.3 mph 6.5 mph 43 % 0 in
19:27 56.3 °F 33.8 °F 30 in North 2.7 mph 6.5 mph 43 % 0 in
19:32 56.1 °F 33.8 °F 30 in NW 3.4 mph 6.3 mph 43 % 0 in
19:37 56.3 °F 33.8 °F 30 in NNW 3.1 mph 6 mph 43 % 0 in
19:42 55.9 °F 33.8 °F 30 in North 3.1 mph 6 mph 43 % 0 in
19:47 55.4 °F 33.8 °F 30 in NNW 3.1 mph 6 mph 43 % 0 in
19:48 55.4 °F 33.8 °F 30 in NE 5.4 mph 6.3 mph 43 % 0 in
19:53 54.9 °F 33.8 °F 30 in North 4 mph 6.3 mph 43 % 0 in
19:58 54.5 °F 33.8 °F 30 in North 3.8 mph 4.9 mph 44 % 0 in
20:03 53.4 °F 32 °F 30 in NNW 3.8 mph 4.9 mph 44 % 0 in
20:08 52.7 °F 32 °F 30 in NNW 3.6 mph 4.9 mph 44 % 0 in
20:13 52.2 °F 32 °F 30 in NNE 1.6 mph 4.7 mph 44 % 0 in
20:18 51.6 °F 32 °F 30 in NW 1.6 mph 6 mph 45 % 0 in
20:23 51.3 °F 30.2 °F 30 in North 4 mph 6 mph 45 % 0 in
20:28 50.9 °F 30.2 °F 30 in NNW 1.3 mph 4 mph 45 % 0 in
20:33 50.5 °F 30.2 °F 30 in WNW 0.9 mph 4 mph 46 % 0 in
20:38 50.2 °F 30.2 °F 30 in NNW 3.1 mph 3.6 mph 46 % 0 in
20:43 49.8 °F 30.2 °F 30 in Calm   3.6 mph 46 % 0 in
20:48 49.5 °F 30.2 °F 30 in North 2 mph 2.9 mph 47 % 0 in
20:53 49.1 °F 30.2 °F 30 in West 0.9 mph 2.9 mph 47 % 0 in
20:58 48.7 °F 30.2 °F 30 in Calm   2.5 mph 47 % 0 in
21:03 48.6 °F 30.2 °F 30 in Calm     47 % 0 in
21:08 48.2 °F 30.2 °F 30 in Calm     48 % 0 in
21:14 47.7 °F 30.2 °F 30 in Calm     48 % 0 in
21:19 47.3 °F 30.2 °F 30 in Calm     49 % 0 in
21:24 47.1 °F 30.2 °F 30 in Calm     49 % 0 in
21:26 46.8 °F 30.2 °F 30 in Calm   2 mph 50 % 0 in
21:31 46.6 °F 30.2 °F 30 in Calm   2 mph 50 % 0 in
21:36 46.4 °F 30.2 °F 30 in Calm     52 % 0 in
21:41 46 °F 30.2 °F 30 in Calm     53 % 0 in
21:46 45.9 °F 30.2 °F 30 in Calm     54 % 0 in
21:51 45.9 °F 30.2 °F 30 in Calm     55 % 0 in
21:56 45.5 °F 30.2 °F 30 in Calm     56 % 0 in
22:01 45.3 °F 30.2 °F 30 in Calm     57 % 0 in
22:06 45.1 °F 32 °F 30 in Calm     58 % 0 in
22:11 45 °F 32 °F 30 in Calm     59 % 0 in
22:16 44.8 °F 32 °F 30 in Calm     59 % 0 in
22:17 44.8 °F 32 °F 30 in Calm     59 % 0 in
22:22 44.6 °F 32 °F 30 in Calm     60 % 0 in
22:27 44.6 °F 32 °F 30 in Calm     61 % 0 in
22:28 44.6 °F 32 °F 30 in Calm     61 % 0 in
22:33 44.6 °F 32 °F 30 in Calm     62 % 0 in
22:38 44.6 °F 33.8 °F 30 in Calm     63 % 0 in
22:43 44.4 °F 33.8 °F 30 in Calm     64 % 0 in
22:48 44.4 °F 33.8 °F 30 in Calm     64 % 0 in
22:53 44.2 °F 33.8 °F 30 in Calm     65 % 0 in
22:58 44.2 °F 33.8 °F 30 in Calm     65 % 0 in
23:03 44.2 °F 33.8 °F 30 in Calm     66 % 0 in
23:08 44.2 °F 33.8 °F 30 in Calm     66 % 0 in
23:13 44.2 °F 33.8 °F 30 in Calm     67 % 0 in
23:18 44.2 °F 33.8 °F 30 in Calm     67 % 0 in
23:23 44.2 °F 33.8 °F 30 in Calm     68 % 0 in
23:28 44.2 °F 33.8 °F 30 in Calm     69 % 0 in
23:33 44.1 °F 33.8 °F 30 in Calm     69 % 0 in
23:38 44.1 °F 33.8 °F 30 in Calm     69 % 0 in
23:43 43.9 °F 35.6 °F 30 in Calm     70 % 0 in
23:48 43.7 °F 35.6 °F 30 in Calm     70 % 0 in
23:53 43.7 °F 35.6 °F 30 in Calm     70 % 0 in
23:58 43.7 °F 35.6 °F 30 in Calm     71 % 0 in
Le Gheer Warneton
Courtoisie de Weather Underground - 2.25 mb

Mise a jour : 16-12-17 15:58:12
Généré par Cumulus 1.9.4 (1099)